Regional Weather Roundup
Issued by NWS

Home | Current Version | Previous Version | Graphics & Text | Print | Product List | Glossary On
Versions: 1 2 3 4 5 6 7 8 9 10 11 12 13 14 15 16 17 18 19 20 21 22 23 24 25 26 27 28 29 30 31 32 33 34 35 36 37 38 39 40 41 42 43 44 45 46 47 48 49 50
000
ASUS43 KMKX 220600
RWRWI

WISCONSIN REGIONAL WEATHER ROUNDUP
NATIONAL WEATHER SERVICE MILWAUKEE/SULLIVAN WI
1200 AM CST WED FEB 22 2017

NOTE: "FAIR" INDICATES FEW OR NO CLOUDS BELOW 12,000 FEET WITH NO
SIGNIFICANT WEATHER AND/OR OBSTRUCTIONS TO VISIBILITY.

WIZ001-002-006>008-014>016-023>028-220700-
NORTHWEST WISCONSIN

CITY           SKY/WX    TMP DP  RH WIND       PRES   REMARKS
SUPERIOR ARPT  PTCLDY    33  32  98 SW3       29.68F
ASHLAND        PTCLDY    45  38  76 S3        29.67F
6HR MIN TEMP:  39; 6HR MAX TEMP:  48;

HAYWARD        CLOUDY    49  40  71 SW5       29.68S
6HR MIN TEMP:  45; 6HR MAX TEMP:  51;

SIREN          PTCLDY    41  38  91 CALM      29.68F
CUMBERLAND     PTCLDY    39  37  93 CALM      29.68S
RICE LAKE      PTCLDY    42  38  87 SE3       29.70F
CHETEK         PTCLDY    43  39  86 CALM      29.69F
LADYSMITH      CLOUDY    46  36  68 CALM      29.71F
EAU CLAIRE     NOT AVBL
MENOMONIE      CLEAR     43  38  82 CALM      29.69F
6HR MIN TEMP:  43; 6HR MAX TEMP:  54;

NEW RICHMOND   PTCLDY    44  43  95 S6        29.67F
OSCEOLA        NOT AVBL
$$

WIZ003>005-009-010-017-018-220700-
NORTH CENTRAL WISCONSIN

CITY           SKY/WX    TMP DP  RH WIND       PRES   REMARKS
MANITOWISH WTR CLOUDY    45  35  66 SW3       29.69S
ARBOR VITAE    MOCLDY    44  34  68 S5          N/A
WOODRUFF       MOCLDY    44  34  68 S5          N/A
RHINELANDER    CLOUDY    48  33  56 SW9       29.71S
6HR MIN TEMP:  47; 6HR MAX TEMP:  50;

EAGLE RIVER    MOCLDY    47  31  53 SW6       29.69F
LAND O LAKES   CLOUDY    44  32  61 CALM      29.71S
6HR MIN TEMP:  44; 6HR MAX TEMP:  49;

PHILLIPS       CLOUDY    44  35  69 CALM      29.69S
6HR MIN TEMP:  44; 6HR MAX TEMP:  47;

TOMAHAWK       PTCLDY    45  32  60 CALM      29.71F
MEDFORD        CLEAR     45  35  68 S9        29.71F
MERRILL        NOT AVBL
$$

WIZ029-030-035-036-043>047-220700-
CENTRAL WISCONSIN

CITY           SKY/WX    TMP DP  RH WIND       PRES   REMARKS
WAUSAU         PTCLDY    46  33  60 SW9       29.72F
6HR MIN TEMP:  46; 6HR MAX TEMP:  50; 6HR PCP: TRACE;

MOSINEE        CLEAR     37  32  81 S8        29.75F WCI  31
MARSHFIELD     CLEAR     44  34  67 S5        29.73S
6HR MIN TEMP:  44; 6HR MAX TEMP:  53;

STEVENS POINT  PTCLDY    42  32  69 S5        29.76S
WAUPACA        CLOUDY    50  36  58 S5        29.77F
WAUTOMA        CLOUDY    49  36  61 S5        29.78F
6HR MIN TEMP:  46; 6HR MAX TEMP:  55;

WISC RAPIDS    PTCLDY    47  36  65 S7        29.76F
6HR MIN TEMP:  47; 6HR MAX TEMP:  55;

CAMP DOUGLAS   NOT AVBL
$$

WIZ011>013-019>022-031-037>040-048>050-220700-
NORTHEAST WISCONSIN

CITY           SKY/WX    TMP DP  RH WIND       PRES   REMARKS
ANTIGO         MOCLDY    44  33  66 SW9       29.74S
SHAWANO        CLOUDY    51  38  61 CALM      29.76F
OCONTO         CLOUDY    42  36  79 CALM      29.77R
STURGEON BAY   NOT AVBL
GREEN BAY      CLOUDY    44  39  82 S7        29.77F
6HR MIN TEMP:  44; 6HR MAX TEMP:  53;

MANITOWOC      NOT AVBL
APPLETON       CLOUDY    46  34  61 S9        29.77S
CLINTONVILLE   CLOUDY    45  36  70 CALM      29.76F
OSHKOSH        CLOUDY    51  39  63 SW10      29.78S
6HR MIN TEMP:  46; 6HR MAX TEMP:  51;

$$

WIZ032>034-041-042-053>061-220700-
SOUTHWEST WISCONSIN

CITY           SKY/WX    TMP DP  RH WIND       PRES   REMARKS
LA CROSSE      CLEAR     50  40  68 S14       29.74F
6HR MIN TEMP:  49; 6HR MAX TEMP:  57;

SPARTA         CLEAR     38  35  89 CALM      29.76F
6HR MIN TEMP:  37; 6HR MAX TEMP:  56;

VIROQUA        CLEAR     47  38  71 S9        29.77F
6HR MIN TEMP:  45; 6HR MAX TEMP:  54;

BOSCOBEL       CLEAR     40  36  86 W5        29.79F
6HR MIN TEMP:  39; 6HR MAX TEMP:  57;

PRAIRIE DU CHI CLEAR     42  36  79 CALM      29.79F
PLATTEVILLE    CLEAR     45  40  81 S6        29.82S
$$

WIZ056-057-062-063-064-067-068-220700-
SOUTH CENTRAL WISCONSIN

CITY           SKY/WX    TMP DP  RH WIND       PRES   REMARKS
REEDSBURG      CLEAR     47  37  67 S3        29.78F
6HR MIN TEMP:  47; 6HR MAX TEMP:  56;

BARABOO/DELLS  PTCLDY    50  37  59 S12       29.78F
LONE ROCK      NOT AVBL
MINERAL POINT  CLEAR     46  39  76 S5        29.82S
MADISON        CLEAR     47  38  71 MISG      29.80F
6HR MIN TEMP:  46; 6HR MAX TEMP:  57;

MIDDLETON      CLEAR     50  39  66 SW6       29.80F
6HR MIN TEMP:  48; 6HR MAX TEMP:  57;

WATERTOWN      PTCLDY    45  38  78 CALM      29.81F
MONROE         CLEAR     46  41  81 SW13      29.81F
JANESVILLE     CLEAR     43  37  81 CALM      29.83S
$$

WIZ051-052-058>065-066-070>072-220700-
SOUTHEAST WISCONSIN

CITY           SKY/WX    TMP DP  RH WIND       PRES   REMARKS
MILWAUKEE      PTCLDY    48  43  82 CALM      29.82F
6HR MIN TEMP:  45; 6HR MAX TEMP:  50;

WAUKESHA       CLOUDY    45  37  76 S3        29.83F
MILWAUKEE/TIMM PTCLDY    43  39  87 SW5       29.83F
RACINE         CLEAR     38  36  92 S5        29.84F FOG     WCI  34
6HR MIN TEMP:  37; 6HR MAX TEMP:  45;

KENOSHA        CLEAR     45  44  97 S6        29.83F FOG
6HR MIN TEMP:  43; 6HR MAX TEMP:  52;

FOND DU LAC    CLOUDY    53  38  56 SW9       29.79F
6HR MIN TEMP:  46; 6HR MAX TEMP:  53;

SHEBOYGAN      CLOUDY    41  39  93 SW8       29.80F
6HR MIN TEMP:  40; 6HR MAX TEMP:  49;

WEST BEND      MOCLDY    45  41  87 CALM      29.82F
JUNEAU         MOCLDY    47  38  70 S9        29.82F
$$

LSZ147-162-220700-
LAKE SUPERIOR

STATION/POSITION TIME  TEMP    WIND        PRES    WAVE
                       AIR SEA DIR/SP/G            HT/PER
                 (UTC) (F)     (DEG/KT/KT) (MB)    (FT/S)
DEVILS ISLAND    0500   37     320/  6/  6 1005.4R
PORT WING        0530   33     150/  1/  2 1005.4F
SAXON HARBOR     0540   45     200/  3/  6 1004.7R
$$

LMZ867-665-643>646-220700-
LAKE MICHIGAN

STATION/POSITION TIME  TEMP    WIND        PRES    WAVE
                       AIR SEA DIR/SP/G            HT/PER
                 (UTC) (F)     (DEG/KT/KT) (MB)    (FT/S)
CHAMBERS ISLAND  0540   47     170/  6/ 14 1007.5F
NORTHPORT PIER   0540   46     170/  5/  8 1007.8F
SISTER BAY       0535   48     190/ 17/ 19   N/A
ALGOMA LAKESHORE 0525          210/ 10/ 12   N/A
KEWAUNEE LAKESHO 0530   41     200/  7/ 11 1008.4F
SHEBOYGAN LAKESH 0500   39     190/ 11/ 12 1009.8F
PORT WASHINGTON  0540   40     190/  3/  7 1010.8F
MILWAUKEE LAKESH 0530   45     200/  4/  4   N/A
KENOSHA   LAKESH 0500   39      CALM  /  3 1010.8
$$

TC  - TEMPERATURE IN CELSIUS
VSB - VISIBILITY IN STATUTE MILES
WCI - WIND CHILL INDEX
HX  - HEAT INDEX





USA.gov is the U.S. government's official web portal to all federal, state and local government web resources and services.